OPS 4682 DEB, 38430

Orbit data source: Space-Track

OPS 4682 DEB, 38430 is space debris in LEO originally from a launch on Sat, 03 Apr 1965 UTC launched from the Air Force Western Test Range (AFWTR). Debris objects in space refer to the collection of defunct objects orbiting the Earth. Examples of debris include non-operational satellites, rocket bodies, and fragments generated from explosions, collisions, or faulty payload assembly.

Loading next visibility...
Identifier
38430, 1965-027EK
Orbit
LEO
Country
Flag of USUS
Related business
Manufacturer
Unknown
Mission
Spacecraft
Bus & Motor
Unknown
Mass
Unknown
Launch date (UTC)
1965-04-03 (61 years ago)
Launch vehicle
Unknown
Launch site
Air Force Western Test Range (AFWTR)
Object type
Payload
Rocket body
Debris
Shape & HBR
Unknown shape, 0.1 m
Radar Cross Section
Small (<0.1 m²)

Expand to show TLE details & history
Last TLE update: 3 days ago

TLE from 3 days ago
0 OPS 4682 DEB
1 38430U 65027EK  25291.97150465  .00000668  00000-0  21869-2 0  9992
2 38430  90.2637  16.7139 0051723 258.2776 101.2540 12.99874722632352
Epoch: 2025-10-18T23:18Z
TLE epoch observation values (Epoch: 2025-10-18T23:18:58.001Z)
Latitude
-0.00003°
Longitude
-0.72264°
Altitude
1,273.371 km
Speed
7.215 km/s
True Right ascension
01h 06m 51s
True Declination
0° 00' 00"
Sunlit
Object was in full shadow at epoch
Visualization orbit readout
Latitude
Unknown
Longitude
Unknown
Altitude
Unknown
Speed
Unknown
Apparent Right ascension
Unknown
Apparent Declination
Unknown
Sunlit
N/A
Visualization observer readout
Local Sidereal Time
12:39:41
Azimuth
Unknown
Elevation
Unknown
Doppler factor
Unknown
Orbital elements
Apogee altitude
1,299.21 km
Perigee altitude
1,220.199 km
Semi-major axis
7,637.842 km
Eccentricity
0.00517
Inclination
90.2637°
RAAN
16.7139°
Arg. of periapsis
258.2776°
True anomaly
101.83456°
Mean anomaly
101.254°
Eccentric anomaly
101.54436°
Mean motion
3.25153 °/min
Orbital period
110.72 mins
BSTAR
0.0021869
Loading maneuver chart data...
Computing Atmospheric mass density...
Loading historical data...
Loading historical data...
Loading historical data...
Loading historical data...
Loading historical data...
Loading historical data...
Loading historical data...

Documentation

Showing up to 5 results
|